Regional Weather Roundup
Issued by NWS

Home | Current Version | Previous Version | Graphics & Text | Print | Product List | Glossary On
Versions: 1 2 3 4 5 6 7 8 9 10 11 12 13 14 15 16 17 18 19 20 21 22 23 24 25 26 27 28 29 30 31 32 33 34 35 36 37 38 39 40 41 42 43 44 45 46 47 48 49 50
000
ASUS43 KMKX 062021
RWRWI

WISCONSIN REGIONAL WEATHER ROUNDUP
NATIONAL WEATHER SERVICE MILWAUKEE/SULLIVAN WI
300 PM CDT MON JUL 06 2015

NOTE: "FAIR" INDICATES FEW OR NO CLOUDS BELOW 12,000 FEET WITH NO
SIGNIFICANT WEATHER AND/OR OBSTRUCTIONS TO VISIBILITY.

WIZ001-002-006>008-014>016-023>028-062100-
NORTHWEST WISCONSIN

CITY           SKY/WX    TMP DP  RH WIND       PRES   REMARKS
SUPERIOR ARPT  CLOUDY    64  61  88 CALM      29.93S FOG
ASHLAND        LGT RAIN  60  59  96 N7        29.92S VSB 1
HAYWARD        LGT RAIN  59  56  89 N15G21    29.90F FOG
SIREN          CLOUDY    62  60  93 N8        29.93R FOG
CUMBERLAND     DRIZZLE   59  55  88 N13G21    29.90R
RICE LAKE      RAIN      61  58  88 N13       29.91R
CHETEK         LGT RAIN  62  60  94 N10G20    29.88R
LADYSMITH      LGT RAIN  61  59  92 N21G28    29.88R
EAU CLAIRE     LGT RAIN  65  61  87 N14G28    29.83R
MENOMONIE      DRIZZLE   63  61  92 NW16G24   29.87R
NEW RICHMOND   CLOUDY    62  59  89 N14G22    29.93R FOG
OSCEOLA        CLOUDY    63  62  99 N8G17     29.96R FOG
$$

WIZ003>005-009-010-017-018-062100-
NORTH CENTRAL WISCONSIN

CITY           SKY/WX    TMP DP  RH WIND       PRES   REMARKS
MANITOWISH WTR RAIN      58  58 100 N13G21    29.87R
ARBOR VITAE    RAIN      62  60  93 N16G25    29.84R
WOODRUFF       RAIN      62  60  93 N16G25    29.84R
RHINELANDER    LGT RAIN  70  67  90 CALM      29.82R FOG
EAGLE RIVER    LGT RAIN  72  70  94 CALM      29.81F
LAND O LAKES   RAIN      62  60  93 N17G24    29.86R
PHILLIPS       DRIZZLE   59  57  96 N9G21     29.86R
TOMAHAWK       HVY RAIN  68  67  94 NW3       29.80F VSB 3/4
MEDFORD        RAIN      70  69  95 SW21G26   29.78F
MERRILL        LGT RAIN  72  70  93 S7        29.80F
$$

WIZ029-030-035-036-043>047-062100-
CENTRAL WISCONSIN

CITY           SKY/WX    TMP DP  RH WIND       PRES   REMARKS
WAUSAU         LGT RAIN  75  68  78 SW8       29.79F
MOSINEE        CLOUDY    75  72  88 S10       29.80
MARSHFIELD     RAIN      74  69  85 W9        29.81S
STEVENS POINT  LGT RAIN  75  68  77 SW5       29.81S
WAUPACA        CLOUDY    82  71  67 S9        29.81S HX  86
WAUTOMA        CLOUDY    81  72  74 S10       29.82R HX  84
WISC RAPIDS    CLOUDY    78  69  73 SW9       29.81F HX  80
CAMP DOUGLAS   CLOUDY    79  77  94 S10       29.82S HX  83
$$

WIZ011>013-019>022-031-037>040-048>050-062100-
NORTHEAST WISCONSIN

CITY           SKY/WX    TMP DP  RH WIND       PRES   REMARKS
ANTIGO         CLOUDY    73  69  88 S10       29.82F
SHAWANO        CLOUDY    80  70  73 SW5       29.80F HX  83
OCONTO         CLOUDY    79  74  84 SW7       29.79F HX  83
STURGEON BAY   CLOUDY    70  64  83 S14       29.83F
GREEN BAY      CLOUDY    80  71  74 S8        29.79F HX  84
MANITOWOC      CLOUDY    71  65  81 MISG      29.82F HAZE
APPLETON       PTSUNNY   79  66  65 S9        29.81F HX  81
CLINTONVILLE   PTSUNNY   79  68  69 S9        29.80F HX  81
OSHKOSH        CLOUDY    77  70  79 S10       29.81S
$$

WIZ032>034-041-042-053>061-062100-
SOUTHWEST WISCONSIN

CITY           SKY/WX    TMP DP  RH WIND       PRES   REMARKS
LA CROSSE      LGT RAIN  76  69  79 S9        29.80F
SPARTA         CLOUDY    77  67  71 SW7       29.83S
VIROQUA        CLOUDY    73  68  84 SW10      29.86S
BOSCOBEL       CLOUDY    79  70  74 SW6       29.84R HX  82
PRAIRIE DU CHI CLOUDY    76  67  73 S8G16     29.84S
PLATTEVILLE    CLOUDY    77  71  81 S15       29.87S
$$

WIZ056-057-062-063-064-067-068-062100-
SOUTH CENTRAL WISCONSIN

CITY           SKY/WX    TMP DP  RH WIND       PRES   REMARKS
REEDSBURG      CLOUDY    77  70  78 SW8       29.84R
BARABOO/DELLS  CLOUDY    78  67  68 S12       29.84S HX  80
LONE ROCK      CLOUDY    80  69  69 SW8       29.84F HX  83
MINERAL POINT  CLOUDY    79  70  73 S16G24    29.87S HX  81
MADISON        CLOUDY    78  70  76 SW8       29.85R HX  80
MIDDLETON      CLOUDY    79  70  73 SW9       29.86R HX  82
WATERTOWN      CLOUDY    78  76  94 S8        29.84R
MONROE         CLOUDY    77  70  78 S18       29.88R
JANESVILLE     CLOUDY    79  70  73 S12       29.86F HX  81
$$

WIZ051-052-058>065-066-070>072-062100-
SOUTHEAST WISCONSIN

CITY           SKY/WX    TMP DP  RH WIND       PRES   REMARKS
MILWAUKEE      CLOUDY    77  70  79 S9        29.87F
WAUKESHA       CLOUDY    73  72  94 SE8       29.86F
MILWAUKEE/TIMM MOSUNNY   75  70  83 SE12      29.85F
RACINE         LGT RAIN  75  69  81 S8        29.90F
BURLINGTON     CLOUDY    72  70  92 S7        29.88S
KENOSHA        LGT RAIN  73  70  90 S9        29.89F FOG
FOND DU LAC    CLOUDY    78  70  76 S12       29.82F HX  80
SHEBOYGAN      CLOUDY    77  70  79 SE12      29.80F
WEST BEND      CLOUDY    77  70  78 S8        29.83F
JUNEAU         CLOUDY    76  71  83 S8        29.85R
$$

LSZ147-162-062100-
LAKE SUPERIOR

STATION/POSITION TIME  TEMP    WIND        PRES    WAVE
                       AIR SEA DIR/SP/G            HT/PER
                 (UTC) (F)     (DEG/KT/KT) (MB)    (FT/S)
W MID LAKE BUOY  1950   50 39   30/  4/  4 1012.5R   0
DEVILS ISLAND    2000   59     270/  1/  2 1013.1R
PORT WING        1900   60     270/  1/  2 1013.5R
SAXON HARBOR     1900   60      30/ 11/ 13 1012.5R
$$

LMZ867-665-643>646-062100-
LAKE MICHIGAN

STATION/POSITION TIME  TEMP    WIND        PRES    WAVE
                       AIR SEA DIR/SP/G            HT/PER
                 (UTC) (F)     (DEG/KT/KT) (MB)    (FT/S)
CHAMBERS ISLAND  1900   71     150/  5/ 12 1009.5F
S GREEN BAY BUOY 1800   72 69  190/  4/  6 1011.7
N MID LAKE BUOY  1950   60 56  190/ 17/ 21 1009.6F   3/ 4
NORTHPORT PIER   1900   65     150/  9/ 15 1010.2F
SISTER BAY       1914   68     180/ 17/ 21   N/A
ALGOMA LAKESHORE 1941          220/ 12/ 13   N/A
KEWAUNEE LAKESHO 1900   61     190/ 14/ 16 1010.3F
SHEBOYGAN LAKESH 2000   62     160/ 17/ 18 1009.4F
PORT WASHINGTON  1940   68     180/  6/ 13 1011.2F
ATWATER BUOY     2000   65 59  140/ 14/ 16 1011.6F
MILWAUKEE LAKESH 2000   67     140/ 14/ 16   N/A
KENOSHA   LAKESH 2000   69     180/  9/ 10 1011.9F
$$

TC  - TEMPERATURE IN CELSIUS
VSB - VISIBILITY IN STATUTE MILES
WCI - WIND CHILL INDEX
HX  - HEAT INDEX



USA.gov is the U.S. government's official web portal to all federal, state and local government web resources and services.